Location: Brantley
(31.5822°N, 86.2569°W)
Time: 16:36:37
(UTC+00:00)

Vanguard 2 - All Passes

Search period start: 16 February 2026 00:00
Search period end: 26 February 2026 00:00
Orbit: 553 x 2897 km, 32.9° (Epoch: 15 February)

Date Brightness Start Highest point End Pass type
(mag) Time Alt. Az. Time Alt. Az. Time Alt. Az.
16 Feb - 10:03:24 10° SSW 10:09:07 26° SSE 10:13:15 10° ESE visible
16 Feb - 12:11:55 10° WSW 12:17:04 73° SSE 12:21:03 10° E daylight
16 Feb - 14:20:44 10° W 14:24:45 74° N 14:28:57 10° E daylight
16 Feb - 16:28:23 10° W 16:32:25 53° SSW 16:37:54 10° ESE daylight
16 Feb - 18:36:52 10° WSW 18:40:36 18° SSW 18:45:27 10° SSE daylight
17 Feb - 08:09:15 10° S 08:12:19 12° SSE 08:14:59 10° SE visible
17 Feb - 10:14:42 10° SW 10:21:11 35° SSE 10:25:36 10° E visible
17 Feb - 12:23:57 10° WSW 12:29:04 89° S 12:33:04 10° E daylight
17 Feb - 14:32:46 10° W 14:36:47 81° N 14:41:02 10° E daylight
17 Feb - 16:40:31 10° W 16:44:25 39° SSW 16:49:38 10° SE daylight
17 Feb - 18:50:29 10° SW 18:52:43 12° SSW 18:55:16 10° S daylight
18 Feb - 08:18:38 10° SSW 08:24:29 18° SSE 08:28:56 10° ESE visible
18 Feb - 10:26:17 10° SW 10:33:13 47° SSE 10:37:48 10° E visible
18 Feb - 12:36:01 10° W 12:41:06 80° N 12:45:05 10° E daylight
18 Feb - 14:44:48 10° W 14:48:49 86° SSW 14:53:05 10° ESE daylight
18 Feb - 16:52:46 10° W 16:56:25 28° SSW 17:01:07 10° SE daylight
19 Feb - 08:29:07 10° SSW 08:36:36 25° SSE 08:41:50 10° ESE visible
19 Feb - 10:38:04 10° WSW 10:45:14 61° SSE 10:49:53 10° E visible
19 Feb - 12:48:08 10° W 12:53:09 75° N 12:57:07 10° E daylight
19 Feb - 14:56:51 10° W 15:00:49 69° SSW 15:05:04 10° ESE daylight
19 Feb - 17:05:17 10° WSW 17:08:26 19° SSW 17:12:15 10° SSE daylight
20 Feb - 06:35:38 10° SSE 06:39:01 12° SSE 06:42:01 10° SE night (unlit)
20 Feb - 08:40:07 10° SW 08:48:43 33° SSE 08:54:20 10° E visible
20 Feb - 10:50:01 10° WSW 10:57:14 75° SSE 11:01:54 10° E visible
20 Feb - 13:00:15 10° W 13:05:12 75° N 13:09:09 10° E daylight
20 Feb - 15:08:55 10° W 15:12:47 50° SSW 15:16:56 10° ESE daylight
20 Feb - 17:18:26 10° SW 17:20:26 13° SSW 17:22:40 10° S daylight
21 Feb - 06:44:10 10° S 06:51:13 17° SSE 06:56:42 10° ESE night (unlit)
21 Feb - 08:51:27 10° SW 09:00:47 42° SSE 09:06:37 10° E visible
21 Feb - 11:02:03 10° WSW 11:09:15 88° S 11:13:54 10° E visible
21 Feb - 13:12:20 10° W 13:17:14 80° N 13:21:11 10° E daylight
21 Feb - 15:21:04 10° W 15:24:43 35° SSW 15:28:39 10° SE daylight
22 Feb - 06:54:10 10° SSW 07:03:21 24° SSE 07:09:57 10° ESE night (unlit)
22 Feb - 09:03:01 10° SW 09:12:49 53° SSE 09:18:46 10° E visible
22 Feb - 11:14:10 10° W 11:21:17 83° N 11:25:54 10° E visible
22 Feb - 13:24:24 10° W 13:29:16 89° S 13:33:12 10° ESE daylight
22 Feb - 15:33:21 10° W 15:36:38 24° SSW 15:40:07 10° SSE daylight
23 Feb - 05:04:29 10° SSE 05:04:58 10° SSE 05:05:27 10° SE night (unlit)
23 Feb - 07:04:47 10° SSW 07:15:28 31° SSE 07:22:40 10° E night (unlit)
23 Feb - 09:14:48 10° WSW 09:24:51 65° SSE 09:30:49 10° E visible
23 Feb - 11:26:19 10° W 11:33:20 78° N 11:37:54 10° E visible
23 Feb - 13:36:28 10° W 13:41:14 72° SSW 13:45:10 10° ESE daylight
23 Feb - 15:45:59 10° WSW 15:48:31 16° SSW 15:51:11 10° SSE daylight
24 Feb - 05:09:51 10° S 05:17:10 15° SSE 05:23:16 10° ESE night (unlit)
24 Feb - 07:15:48 10° SW 07:27:33 39° SSE 07:35:05 10° E visible
24 Feb - 09:26:45 10° WSW 09:36:52 77° SSE 09:42:50 10° E visible
24 Feb - 11:38:29 10° W 11:45:23 78° N 11:49:56 10° E visible
24 Feb - 13:48:33 10° W 13:53:11 54° SSW 13:57:03 10° ESE daylight
24 Feb - 16:00:10 10° SW 16:00:23 10° SSW 16:00:35 10° SSW daylight
25 Feb - 05:19:09 10° S 05:29:18 21° SSE 05:37:09 10° ESE night (unlit)
25 Feb - 07:27:06 10° SW 07:39:36 48° SSE 07:47:20 10° E visible
25 Feb - 09:38:48 10° WSW 09:48:54 87° SSE 09:54:50 10° E visible
25 Feb - 11:50:37 10° W 11:57:27 81° N 12:01:57 10° E visible
25 Feb - 14:00:42 10° W 14:05:04 39° SSW 14:08:46 10° SE daylight
